[[{"header":{"parameterUnit":"m.s-1","parameterCategory":1,"la1":30.2991,"la2":30.254,"lo1":-89.0895,"lo2":-89.0444,"dy":0.0017,"dx":0.0017,"nx":28,"ny":28,"refTime":"2024-12-20T03:00:00:Z","depth":0,"parameterNumber":2,"parameterNumberName":"U-component_of_WINDS"},"data":[0,0,0,0,0,0,0,0,0,0,0,0,0,0,0,0,0,0,0,0,0,0,0,0,0,0,0,0,0,0,0,0,0,0,0,0,0,0,0,0,0,0,0,0,0,0,0,0,0,0,0,0,0,0,0,0,0,0,0.8722,0.8722,0,0.8731,0.8731,0.8731,0.8711,0.871,0.871,0.8709,0.872,0.8721,0.8722,0,0,0,0,0,0,0,0,0,0,0,0,0,0.869,0.8691,0.8722,0.8722,0.8722,0.8731,0.8731,0.8731,0.8711,0.871,0.871,0.8709,0.872,0.8721,0.8722,0,0,0,0,0,0,0,0,0,0,0,0,0,0.8702,0.8691,0.8722,0.8713,0.8712,0.873,0.8731,0.8731,0.8711,0.871,0.8709,0.8708,0.8719,0.8721,0.8722,0.8749,0,0,0.8726,0.8726,0,0,0,0,0,0,0,0,0.8701,0.8703,0.8714,0.8714,0.8713,0.8719,0.8724,0.8737,0.8711,0.8712,0.8709,0.8708,0.872,0.8722,0.8725,0.875,0.875,0.8726,0.8727,0.8727,0.8728,0,0,0,0,0,0,0,0.8701,0.8703,0.8725,0.8714,0.8714,0.871,0.871,0.8726,0.8721,0.8712,0.871,0.8711,0.872,0.8724,0.8725,0.875,0.8726,0.8727,0.8728,0.8728,0.8799,0.88,0,0,0,0,0,0,0.8701,0.8702,0.8725,0.8726,0.8705,0.8711,0.8712,0.8718,0.8721,0.8721,0.8712,0.871,0.8722,0.8724,0.8726,0.8759,0.8727,0.8729,0.8729,0.8798,0.88,0.8801,0,0,0,0,0,0,0.87,0.8703,0.8725,0.8714,0.8716,0.8713,0.872,0.8719,0.8723,0.8722,0.8721,0.8717,0.8722,0.8724,0.8744,0.8759,0.8729,0.873,0.8797,0.8799,0.88,0.8825,0,0,0,0,0,0,0.8699,0.8703,0.8712,0.8714,0.8717,0.8742,0.8721,0.8719,0.8725,0.8723,0.8726,0.8726,0.8721,0.8742,0.8745,0.876,0.8731,0.8796,0.8798,0.88,0.8823,0.8828,0.8831,0,0,0,0,0,0.8698,0.8719,0.8713,0.8716,0.8729,0.8743,0.8744,0.8738,0.8726,0.8736,0.8736,0.8726,0.8757,0.8744,0.8747,0.8763,0.8795,0.8797,0.88,0.8821,0.8827,0.8831,0,0,0,0,0,0,0.872,0.8719,0.8712,0.8734,0.8739,0.8739,0.8752,0.8744,0.8752,0.8749,0.8742,0.8743,0.8765,0.8766,0.8752,0.8791,0.8774,0.8777,0.8789,0.8794,0.8799,0.8798,0.8733,0,0,0,0,0,0.8727,0.8738,0.8737,0.8757,0.8759,0.8755,0.8761,0.8756,0.876,0.8762,0.8763,0.8768,0.878,0.8787,0.8797,0.8823,0.8824,0.8836,0.884,0.8844,0.8847,0.8862,0.8868,0.8809,0.8809,0.8809,0,0,0.8743,0.8743,0.8751,0.8761,0.8764,0.8776,0.8757,0.877,0.878,0.8764,0.8783,0.8784,0.879,0.8813,0.8824,0.8815,0.8863,0.8847,0.8849,0.8851,0.8865,0.8871,0.8876,0.881,0.881,0.881,0,0,0.8777,0.8778,0.8795,0.8798,0.8803,0.88,0.8804,0.8806,0.8807,0.8825,0.8814,0.8826,0.8845,0.885,0.8855,0.8892,0.8884,0.8896,0.8918,0.8933,0.8938,0.8942,0.8956,0.8961,0.8899,0.8899,0.8899,0,0.8795,0.8813,0.8805,0.8819,0.8825,0.8811,0.8829,0.8833,0.8841,0.8845,0.8835,0.886,0.8863,0.8888,0.8897,0.8901,0.8907,0.8895,0.8937,0.8941,0.8945,0.8959,0.8964,0.89,0.89,0.89,0.89,0,0.8836,0.8848,0.8862,0.8869,0.8876,0.8892,0.8888,0.8896,0.8891,0.889,0.891,0.8913,0.8924,0.8929,0.8924,0.8954,0.8949,0.8938,0.8921,0.8952,0.8965,0.8971,0.8903,0.8902,0.8902,0.8901,0,0,0.8884,0.8887,0.8893,0.8896,0.8901,0.8911,0.8927,0.8937,0.8945,0.8951,0.8966,0.8983,0.8973,0.8979,0.8974,0.8987,0.9019,0.8975,0.8976,0.8984,0.9054,0.9062,0.9068,0.9013,0.9014,0.9015,0.9054,0,0.8918,0.8945,0.8939,0.8967,0.8979,0.8967,0.8981,0.8986,0.8986,0.8997,0.8997,0.9009,0.8995,0.8999,0.9011,0.9012,0.9033,0.9009,0.9027,0.9028,0.9027,0.9075,0.9084,0.912,0.9059,0.9059,0.906,0,0.8962,0.897,0.8998,0.9002,0.9007,0.902,0.903,0.904,0.9046,0.9045,0.9052,0.9045,0.9062,0.9045,0.907,0.9054,0.9061,0.9063,0.9064,0.9066,0.9046,0.9079,0.9132,0.9138,0.9068,0.9067,0.9067,0,0.8995,0.9013,0.9033,0.9036,0.9041,0.905,0.9053,0.9058,0.9065,0.9074,0.9079,0.909,0.9096,0.9105,0.9102,0.9089,0.9128,0.911,0.9129,0.9129,0.9138,0.9138,0.9193,0.9141,0.9141,0.9141,0.9141,0,0.9035,0.9053,0.9048,0.906,0.908,0.9074,0.9094,0.9096,0.91,0.9113,0.9104,0.9116,0.9111,0.9124,0.9122,0.9144,0.9146,0.9147,0.9146,0.9148,0.9148,0.9153,0.9151,0.9143,0.9142,0.9142,0.9142,0,0.9076,0.9073,0.9093,0.9096,0.9097,0.9112,0.9115,0.9127,0.9126,0.9143,0.9147,0.9146,0.9161,0.9158,0.9175,0.9173,0.9201,0.9197,0.9199,0.9198,0.9218,0.9216,0.9279,0.9287,0.9229,0.923,0.923,0,0.9102,0.9115,0.912,0.9127,0.9131,0.9143,0.915,0.9145,0.9153,0.9162,0.9173,0.9187,0.9198,0.9222,0.9223,0.9236,0.9233,0.9254,0.9235,0.9237,0.9235,0.9234,0.9236,0.9258,0.9259,0.9259,0.926,0,0.9148,0.9146,0.9157,0.9167,0.9176,0.9184,0.9191,0.9199,0.9194,0.9204,0.9219,0.9227,0.9244,0.9258,0.9271,0.9274,0.9267,0.9266,0.9271,0.9274,0.9275,0.9276,0.921,0.9264,0.9264,0.9264,0.9263,0.9263,0.9183,0.9195,0.92,0.9213,0.9218,0.9225,0.9237,0.9237,0.9249,0.9262,0.9259,0.9276,0.9283,0.9299,0.9304,0.9318,0.931,0.9318,0.932,0.9322,0.9325,0.9272,0.932,0.932,0.932,0.932,0.932,0,0.923,0.9233,0.9244,0.9255,0.9265,0.9256,0.9264,0.9274,0.9289,0.9296,0.9307,0.9324,0.9338,0.9341,0.9355,0.9366,0.9363,0.937,0.937,0.9371,0.933,0.9325,0.9372,0.9372,0.9372,0.9372,0.9372,0.9372,0.9256,0.9276,0.9275,0.9298,0.9301,0.9317,0.9323,0.933,0.9336,0.9356,0.9367,0.9369,0.9375,0.9389,0.9402,0.9403,0.9409,0.9417,0.9417,0.9379,0.9374,0.9369,0.9363,0.9418,0.9419,0.9457,0.9457,0.9457]},{"header":{"parameterUnit":"m.s-1","parameterCategory":1,"la1":30.2991,"la2":30.254,"lo1":-89.0895,"lo2":-89.0444,"dy":0.0017,"dx":0.0017,"nx":28,"ny":28,"refTime":"2024-12-20T03:00:00:Z","depth":0,"parameterNumber":3,"parameterNumberName":"V-component_of_WINDS"},"data":[0,0,0,0,0,0,0,0,0,0,0,0,0,0,0,0,0,0,0,0,0,0,0,0,0,0,0,0,0,0,0,0,0,0,0,0,0,0,0,0,0,0,0,0,0,0,0,0,0,0,0,0,0,0,0,0,0,0,-2.7414,-2.7417,0,-2.7635,-2.7638,-2.764,-2.7736,-2.7736,-2.7736,-2.7735,-2.7957,-2.7963,-2.7969,0,0,0,0,0,0,0,0,0,0,0,0,0,-2.7073,-2.7079,-2.7414,-2.7417,-2.742,-2.7635,-2.7638,-2.7641,-2.7736,-2.7736,-2.7735,-2.7735,-2.7955,-2.7962,-2.797,0,0,0,0,0,0,0,0,0,0,0,0,0,-2.725,-2.708,-2.7414,-2.7493,-2.7503,-2.7634,-2.7638,-2.7642,-2.7736,-2.7736,-2.7735,-2.7735,-2.7953,-2.7962,-2.7971,-2.8038,0,0,-2.7999,-2.8003,0,0,0,0,0,0,0,0,-2.724,-2.7262,-2.7479,-2.7488,-2.7499,-2.7658,-2.7599,-2.7774,-2.7736,-2.7647,-2.7735,-2.7735,-2.7858,-2.7875,-2.7917,-2.8048,-2.8058,-2.8,-2.8006,-2.801,-2.8012,0,0,0,0,0,0,0,-2.7227,-2.7253,-2.7501,-2.7482,-2.7494,-2.7517,-2.7542,-2.7633,-2.7752,-2.7655,-2.7663,-2.7688,-2.7863,-2.7908,-2.7923,-2.8061,-2.8,-2.8008,-2.8014,-2.8017,-2.8261,-2.8262,0,0,0,0,0,0,-2.7202,-2.7242,-2.7494,-2.7508,-2.7366,-2.7524,-2.7551,-2.7607,-2.7752,-2.7773,-2.7688,-2.7691,-2.7892,-2.7912,-2.7931,-2.8021,-2.801,-2.8018,-2.8024,-2.826,-2.8261,-2.8262,0,0,0,0,0,0,-2.7195,-2.7224,-2.7486,-2.7378,-2.7413,-2.753,-2.7592,-2.7612,-2.7657,-2.7777,-2.7798,-2.7712,-2.7893,-2.7918,-2.8012,-2.803,-2.8023,-2.8031,-2.8259,-2.826,-2.8261,-2.8199,0,0,0,0,0,0,-2.7184,-2.7221,-2.7248,-2.7377,-2.7418,-2.7563,-2.7593,-2.7616,-2.7673,-2.768,-2.7805,-2.7825,-2.7894,-2.7997,-2.8021,-2.8042,-2.8038,-2.8258,-2.826,-2.8261,-2.82,-2.8198,-2.8197,0,0,0,0,0,-2.7172,-2.722,-2.7249,-2.7279,-2.7455,-2.7564,-2.7587,-2.7667,-2.7674,-2.7702,-2.778,-2.7821,-2.8024,-2.8006,-2.8033,-2.8058,-2.8257,-2.8259,-2.8261,-2.8201,-2.8199,-2.8197,0,0,0,0,0,0,-2.7088,-2.7238,-2.7272,-2.7364,-2.745,-2.758,-2.7618,-2.7661,-2.7746,-2.7749,-2.7843,-2.787,-2.7956,-2.8016,-2.7994,-2.8132,-2.8144,-2.8151,-2.8089,-2.8088,-2.8086,-2.8069,-2.8046,0,0,0,0,0,-2.708,-2.7157,-2.7284,-2.7353,-2.7395,-2.7499,-2.7549,-2.7603,-2.7696,-2.7733,-2.7817,-2.7904,-2.7989,-2.8041,-2.8125,-2.821,-2.8238,-2.824,-2.8238,-2.8236,-2.8241,-2.8292,-2.8294,-2.8268,-2.8268,-2.8268,0,0,-2.7065,-2.7157,-2.7199,-2.7338,-2.7412,-2.7489,-2.7529,-2.7608,-2.7666,-2.7745,-2.7839,-2.7903,-2.8008,-2.8097,-2.8141,-2.815,-2.8255,-2.8239,-2.8236,-2.8243,-2.8294,-2.8296,-2.8298,-2.827,-2.827,-2.8269,0,0,-2.7076,-2.7153,-2.722,-2.7293,-2.7405,-2.7474,-2.749,-2.7613,-2.766,-2.7756,-2.7817,-2.7887,-2.8029,-2.8101,-2.8156,-2.8197,-2.8239,-2.8221,-2.8212,-2.826,-2.8262,-2.8264,-2.8279,-2.8283,-2.8226,-2.8226,-2.8226,0,-2.7042,-2.7162,-2.7248,-2.7325,-2.7385,-2.7461,-2.7529,-2.7596,-2.7728,-2.7767,-2.7776,-2.7958,-2.8033,-2.8141,-2.8151,-2.8193,-2.8214,-2.8207,-2.8255,-2.8258,-2.8261,-2.8277,-2.8282,-2.8223,-2.8224,-2.8224,-2.8224,0,-2.7116,-2.7198,-2.7238,-2.7366,-2.743,-2.7502,-2.7598,-2.7653,-2.7702,-2.7769,-2.7867,-2.796,-2.8065,-2.8095,-2.8142,-2.821,-2.8213,-2.8237,-2.8251,-2.826,-2.8276,-2.8282,-2.822,-2.8221,-2.8221,-2.8222,0,0,-2.7079,-2.7256,-2.7269,-2.7329,-2.7458,-2.7523,-2.7598,-2.7702,-2.7748,-2.7836,-2.7902,-2.8021,-2.8046,-2.8108,-2.8165,-2.8207,-2.8234,-2.8227,-2.823,-2.8225,-2.8315,-2.8296,-2.8302,-2.8263,-2.8264,-2.8265,-2.8307,0,-2.7109,-2.7249,-2.7329,-2.7436,-2.7513,-2.7588,-2.7653,-2.774,-2.7805,-2.788,-2.7952,-2.8035,-2.806,-2.8099,-2.8144,-2.8221,-2.8253,-2.8219,-2.8324,-2.8327,-2.8296,-2.831,-2.829,-2.8325,-2.8314,-2.8315,-2.8316,0,-2.7162,-2.7252,-2.7366,-2.7489,-2.7524,-2.7582,-2.7684,-2.7755,-2.7854,-2.7899,-2.797,-2.8027,-2.8109,-2.8117,-2.8232,-2.8206,-2.8254,-2.8299,-2.8302,-2.8315,-2.8321,-2.8323,-2.8338,-2.8343,-2.8326,-2.8325,-2.8325,0,-2.7125,-2.7274,-2.7362,-2.7411,-2.7556,-2.7595,-2.7657,-2.7756,-2.7814,-2.7903,-2.7941,-2.8038,-2.8091,-2.8164,-2.8246,-2.8244,-2.8352,-2.8367,-2.8391,-2.8389,-2.8411,-2.8408,-2.8433,-2.8441,-2.8441,-2.844,-2.844,0,-2.715,-2.7217,-2.7348,-2.7402,-2.748,-2.7571,-2.7646,-2.7713,-2.7801,-2.787,-2.7939,-2.8002,-2.8106,-2.8181,-2.8245,-2.833,-2.8353,-2.8392,-2.8408,-2.8386,-2.8381,-2.8418,-2.8418,-2.8442,-2.8442,-2.8441,-2.8441,0,-2.7121,-2.7212,-2.7313,-2.7442,-2.7477,-2.7528,-2.7639,-2.7694,-2.7764,-2.785,-2.7875,-2.7984,-2.8076,-2.8165,-2.8288,-2.8331,-2.8416,-2.8438,-2.8383,-2.8392,-2.8412,-2.8409,-2.8462,-2.8473,-2.8472,-2.8472,-2.8472,0,-2.7131,-2.7185,-2.7321,-2.7372,-2.7433,-2.7515,-2.7575,-2.7667,-2.7727,-2.7845,-2.7886,-2.7984,-2.8067,-2.8211,-2.8301,-2.8395,-2.8419,-2.8432,-2.8434,-2.841,-2.842,-2.8416,-2.8422,-2.8429,-2.8429,-2.8428,-2.8428,0,-2.7139,-2.7182,-2.7267,-2.7367,-2.7437,-2.752,-2.7606,-2.7644,-2.7752,-2.7816,-2.7912,-2.7976,-2.8103,-2.82,-2.8305,-2.8368,-2.8416,-2.8427,-2.8437,-2.8415,-2.8382,-2.8401,-2.8378,-2.8425,-2.8425,-2.8425,-2.8426,-2.8426,-2.7131,-2.7183,-2.7287,-2.738,-2.7454,-2.7533,-2.7592,-2.7669,-2.7752,-2.7863,-2.7912,-2.8009,-2.8109,-2.8255,-2.8318,-2.8395,-2.8406,-2.8421,-2.8425,-2.8428,-2.8423,-2.8369,-2.8414,-2.8414,-2.8414,-2.8415,-2.8415,0,-2.7144,-2.7215,-2.7299,-2.7417,-2.749,-2.7531,-2.7628,-2.7685,-2.777,-2.7859,-2.794,-2.8051,-2.8145,-2.8243,-2.8342,-2.8385,-2.841,-2.8408,-2.8406,-2.842,-2.8407,-2.8388,-2.8387,-2.8387,-2.8387,-2.8387,-2.8387,-2.8386,-2.7159,-2.725,-2.7304,-2.7432,-2.7503,-2.76,-2.7652,-2.7725,-2.7797,-2.7918,-2.7997,-2.8061,-2.8153,-2.826,-2.8348,-2.8375,-2.8408,-2.84,-2.8432,-2.8419,-2.842,-2.8422,-2.8405,-2.8406,-2.8407,-2.8439,-2.8439,-2.8439]}]]